Regional Weather Roundup
Issued by NWS

Home | Current Version | Previous Version | Text Only | Print | Product List | Glossary On
Versions: 1 2 3 4 5 6 7 8 9 10 11 12 13 14 15 16 17 18 19 20 21 22 23 24 25 26 27 28 29 30 31 32 33 34 35 36 37 38 39 40 41 42 43 44 45 46 47 48 49 50
000
ASUS45 KTFX 301104
RWRMT
MONTANA HOURLY WEATHER ROUNDUP
NATIONAL WEATHER SERVICE GREAT FALLS MT
504 AM MDT TUE SEP 30 2014

NOTE: "FAIR" INDICATES FEW OR NO CLOUDS BELOW 12000 FEET WITH NO
SIGNIFICANT WEATHER AND/OR OBSTRUCTIONS TO VISIBILITY.

* THESE STATIONS ARE NOT UNDER NWS QUALITY CONTROL. THEY DO NOT
   REPORT WEATHER SUCH AS PRECIPITATION OR FOG.

MTZ001>007-043-301200-
WEST OF THE DIVIDE
CITY           SKY/WX    TMP DP  RH WIND       PRES   REMARKS
KALISPELL      CLOUDY    55  48  77 S8        29.74F
MISSOULA       CLOUDY    52  52 100 CALM      29.82F
BUTTE          CLOUDY    46  43  89 CALM      29.87F
MULLAN PASS    LGT RAIN  39  39 100 SW7G17    29.84S VSB 1/2  WCI  34
* ESSEX        N/A       50  47  89 S1         N/A
* LINCOLN      N/A       47  45  93 S3G8       N/A
* LOOKOUT PASS N/A       46  44  93 SE9G15     N/A
* POLSON       N/A       49  48  96 SE2        N/A
* RONAN APT    CLOUDY    54  48  80 N/A        N/A
* SEELEY LAKE  N/A       47  46  96 N/A        N/A
* THOMP F APT  CLOUDY    40  39  96 N/A        N/A
* YAAK HILL    N/A       51  46  83 E1         N/A
$$

MTZ008-052>055-301200-
SOUTHWEST MONTANA
CITY           SKY/WX    TMP DP  RH WIND       PRES   REMARKS
BOZEMAN        LGT RAIN  48  46  93 S3        29.84F
DILLON         LGT RAIN  46  39  77 SW12      29.88F
W YELLOWSTONE  CLOUDY    41  39  93 SW8       29.92F
* THREE FORKS  CLOUDY    52  30  43 N/A        N/A
* BOULDER HILL N/A       47  34  61 S4G11      N/A
* RAYNOLDS PAS N/A       41  26  55 S8         N/A
* WHITEHALL    N/A       50  44  80 SW7        N/A
* WISE RIVER   N/A       46  38  74 NW9G14     N/A
$$

MTZ009>010-012-014-046-048-049-054-301200-
EAST SLOPES AND CENTRAL MONTANA
CITY           SKY/WX    TMP DP  RH WIND       PRES   REMARKS
CUT BANK       CLOUDY    55  41  59 W20       29.65S
GREAT FALLS    MOCLDY    52  45  77 SW16      29.69S
HELENA         CLOUDY    55  43  64 NW8       29.78S
MALMSTROM AFB  MOCLDY    54  45  72 SW15      29.71S
* CONRAD       CLOUDY    57  48  72 SE5        N/A
* DEARBORN     N/A       52  48  86 S4         N/A
* EAST GLACIER N/A       52  40  64 W17G32     N/A
* MONARCH      N/A       46  33  61 SW11       N/A
* PENDROY      N/A       55  38  53 NW16       N/A
* ROGERS PASS  N/A       45  43  93 SE10G19    N/A
* SAINT MARY   N/A       53  41  64 S9G21      N/A
* SWEET GRASS  N/A       55  46  72 W16G22     N/A
$$

MTZ011-013-016-021-035-040-045-047-050-051-301200-
NORTH CENTRAL MONTANA
CITY           SKY/WX    TMP DP  RH WIND       PRES   REMARKS
LEWISTOWN      CLOUDY    52  43  72 SW14      29.71S
* CHESTER      N/A       55  47  75 W12G21     N/A
* DENTON       N/A       50  45  83 SW7        N/A
* GEYSER       N/A       52  39  61 SW15       N/A
* JUDITH GAP   N/A       41  40  96 SW8        N/A
* LOMA         N/A       57  46  67 SW9        N/A
$$

MTZ017>020-022>027-061-062-301200-
NORTHEAST MONTANA
CITY           SKY/WX    TMP DP  RH WIND       PRES   REMARKS
GLASGOW        CLOUDY    52  48  86 SE12      29.68F
GLENDIVE       CLOUDY    52  52 100 E5        29.72F
JORDAN         CLOUDY    52  50  93 SW6       29.68F
SIDNEY         CLOUDY    54  50  86 SE5       29.74F
WOLF POINT     CLOUDY    54  50  86 E3        29.71F
* BEAVER HILL  N/A       52  51  96 N/A        N/A
* CIRCLE       N/A       52  50  93 N/A        N/A
* LINDSAY DVD  N/A       50  50 100 SE9        N/A
* NAVAJO       N/A       49  49 100 SE6G12     N/A
$$

MTZ028>042-056>058-301200-
SOUTHCENTRAL AND SOUTHEAST MONTANA
CITY           SKY/WX    TMP DP  RH WIND       PRES   REMARKS
BAKER          LGT RAIN  52  52 100 E5        29.71F
BILLINGS       PTCLDY    46  43  89 SW12      29.73S
LIVINGSTON     CLOUDY    52  45  77 W15       29.80S
MILES CITY     CLOUDY    54  50  86 SE3       29.70F
* LAUREL APT   PTCLDY    43  39  86 N/A        N/A
* ROUNDUP APT  PTCLDY    45  41  86 S6         N/A
* ALZADA       N/A       51  51 100 NW5        N/A
* HYSHAM       N/A       50  48  93 W5         N/A
* LAME DEER    N/A       53  48  83 W9         N/A
* REED POINT   N/A       40  39  96 N/A        N/A
* ROSCOE HILL  N/A       51  25  36 SW4G12     N/A
$$

REGIONAL REPORTS...DAKOTAS
CITY           SKY/WX    TMP DP  RH WIND       PRES   REMARKS
WILLISTON      RAIN      54  52  93 SE5       29.75F
DICKINSON      FOG       52  52 100 SE14      29.71F VSB 3/4
BEACH          N/A       50  50 100 SE5       29.72F
CROSBY         FOG       50  50 100 SE8       29.76F
TIOGA          MOCLDY    50  50 100 SE7       29.79F
WATFORD CITY   LGT RAIN  50  50 100 E5        29.72F
BISMARCK       CLOUDY    54  50  86 E14       29.77F
GRAND FORKS    PTCLDY    43  41  93 SE7       29.98F
FARGO          PTCLDY    45  41  86 SE12      29.97F
BUFFALO SD     CLOUDY    52  52 100 N14       29.58F
RAPID CITY     LGT RAIN  54  52  93 N21G28    29.53F
$$

REGIONAL REPORTS...WYOMING/IDAHO/WASHINGTON
CITY           SKY/WX    TMP DP  RH WIND       PRES   REMARKS
GILLETTE       LGT RAIN  50  48  93 CALM      29.69F
SHERIDAN       CLOUDY    48  46  93 CALM      29.71F
CODY           PTCLDY    52  36  55 W10G16    29.78F
YELLOWSTONE LA MOCLDY    37  36  96 CALM      29.96F
SALMON         CLOUDY    48  46  93 CALM      29.89S
MULLAN PASS    LGT RAIN  39  39 100 SW7G17    29.84S VSB 1/2  WCI  34
SAND POINT     N/A       54  50  86 S6        29.75R
SPOKANE        CLOUDY    54  46  74 SW17      29.78S
$$

REGIONAL REPORTS...ALBERTA
CITY           SKY/WX    TMP DP  RH WIND       PRES   REMARKS
MEDICINE HAT   LGT RAIN  57  48  72 SW16      29.51S

$$



USA.gov is the U.S. government's official web portal to all federal, state and local government web resources and services.